21-09-2023, 00:00:01,    200,    0.0,   10.3,   0.00,   0.00,  994.6,    0.0, -999.0
21-09-2023, 00:00:11,    218,    0.4,   10.3,   0.00,   0.00,  994.7,    0.3, -999.0
21-09-2023, 00:00:21,    217,    0.0,   10.3,   0.00,   0.00,  994.6,    0.2, -999.0
21-09-2023, 00:00:31,    217,    0.0,   10.3,   0.00,   0.00,  994.7,    0.1, -999.0
21-09-2023, 00:00:41,    217,    0.0,   10.2,   0.00,   0.00,  994.6,    0.2, -999.0
21-09-2023, 00:00:51,    217,    0.0,   10.2,   0.00,   0.00,  994.6,    0.2, -999.0
21-09-2023, 00:01:01,    219,    0.1,   10.3,   0.00,   0.00,  994.7,    0.4, -999.0
21-09-2023, 00:01:11,    220,    0.5,   10.5,   0.00,   0.00,  994.8,    0.3, -999.0
21-09-2023, 00:01:20,    198,    0.8,   10.4,   0.00,   0.00,  994.8,    0.3, -999.0
21-09-2023, 00:01:31,    207,    0.6,   10.5,   0.00,   0.00,  994.8,    0.3, -999.0
21-09-2023, 00:01:41,    194,    1.0,   10.4,   0.00,   0.00,  994.8,    0.2, -999.0
21-09-2023, 00:01:50,    194,    0.0,   10.3,   0.00,   0.00,  994.7,    0.2, -999.0
21-09-2023, 00:02:01,    199,    0.9,   10.3,   0.00,   0.00,  994.7,    0.3, -999.0
21-09-2023, 00:02:11,    199,    1.0,   10.3,   0.00,   0.00,  994.8,    0.4, -999.0
21-09-2023, 00:02:20,    201,    0.3,   10.4,   0.00,   0.00,  994.7,    0.4, -999.0
21-09-2023, 00:02:30,    203,    1.2,   10.4,   0.00,   0.00,  994.8,    0.2, -999.0
21-09-2023, 00:02:41,    203,    0.0,   10.3,   0.00,   0.00,  994.7,    0.1, -999.0
21-09-2023, 00:02:50,    203,    0.3,   10.4,   0.00,   0.00,  994.8,    0.2, -999.0
21-09-2023, 00:03:00,    203,    0.1,   10.3,   0.00,   0.00,  994.7,    0.1, -999.0
21-09-2023, 00:03:10,    203,    0.0,   10.3,   0.00,   0.00,  994.7,    0.4, -999.0
21-09-2023, 00:03:21,    203,    0.0,   10.3,   0.00,   0.00,  994.6,    0.4, -999.0
21-09-2023, 00:03:30,    203,    0.0,   10.2,   0.00,   0.00,  994.7,    0.3, -999.0
21-09-2023, 00:03:40,    203,    0.0,   10.3,   0.00,   0.00,  994.7,    0.2, -999.0
21-09-2023, 00:03:50,    203,    0.0,   10.3,   0.00,   0.00,  994.6,    0.2, -999.0
21-09-2023, 00:04:00,    204,    0.6,   10.4,   0.00,   0.00,  994.7,    0.2, -999.0
21-09-2023, 00:04:10,    204,    0.0,   10.3,   0.00,   0.00,  994.7,    0.1, -999.0
21-09-2023, 00:04:20,    200,    0.7,   10.4,   0.00,   0.00,  994.8,    0.2, -999.0
21-09-2023, 00:04:30,    200,    0.5,   10.4,   0.00,   0.00,  994.8,    0.3, -999.0
21-09-2023, 00:04:40,    200,    0.2,   10.2,   0.00,   0.00,  994.7,    0.4, -999.0
21-09-2023, 00:04:50,    200,    0.0,   10.3,   0.00,   0.00,  994.7,    0.4, -999.0
21-09-2023, 00:05:00,    200,    0.0,   10.3,   0.00,   0.00,  994.7,    0.2, -999.0
21-09-2023, 00:05:10,    200,    0.0,   10.3,   0.00,   0.00,  994.7,    0.3, -999.0
21-09-2023, 00:05:20,    200,    0.0,   10.3,   0.00,   0.00,  994.7,    0.3, -999.0
21-09-2023, 00:05:30,    200,    0.0,   10.3,   0.00,   0.00,  994.6,    0.3, -999.0
21-09-2023, 00:05:40,    201,    0.0,   10.3,   0.00,   0.00,  994.7,    0.2, -999.0
21-09-2023, 00:05:50,    205,    0.2,   10.4,   0.00,   0.00,  994.8,    0.3, -999.0
21-09-2023, 00:06:00,    205,    0.8,   10.3,   0.00,   0.00,  994.8,    0.3, -999.0
21-09-2023, 00:06:10,    206,    0.2,   10.3,   0.00,   0.00,  994.8,    0.2, -999.0
21-09-2023, 00:06:20,    244,    1.0,   10.4,   0.00,   0.00,  994.8,    0.3, -999.0
21-09-2023, 00:06:30,    242,    0.1,   10.3,   0.00,   0.00,  994.7,    0.4, -999.0
21-09-2023, 00:06:40,    242,    0.0,   10.3,   0.00,   0.00,  994.7,    0.3, -999.0
21-09-2023, 00:06:50,    242,    0.0,   10.3,   0.00,   0.00,  994.7,    0.1, -999.0
21-09-2023, 00:07:00,    242,    0.0,   10.4,   0.00,   0.00,  994.7,    0.1, -999.0
21-09-2023, 00:07:10,    242,    0.0,   10.3,   0.00,   0.00,  994.7,    0.3, -999.0
21-09-2023, 00:07:20,    242,    0.0,   10.3,   0.00,   0.00,  994.7,    0.4, -999.0
21-09-2023, 00:07:30,    242,    0.0,   10.2,   0.00,   0.00,  994.7,    0.3, -999.0
21-09-2023, 00:07:40,    200,    1.1,   10.3,   0.00,   0.00,  994.8,    0.3, -999.0
21-09-2023, 00:07:50,    201,    0.8,   10.4,   0.00,   0.00,  994.8,    0.4, -999.0
21-09-2023, 00:08:00,    204,    0.8,   10.4,   0.00,   0.00,  994.9,    0.1, -999.0
21-09-2023, 00:08:10,    205,    0.3,   10.3,   0.00,   0.00,  994.8,    0.2, -999.0
21-09-2023, 00:08:19,    204,    0.0,   10.3,   0.00,   0.00,  994.7,    0.5, -999.0
21-09-2023, 00:08:30,    204,    0.0,   10.3,   0.00,   0.00,  994.8,    0.3, -999.0
21-09-2023, 00:08:40,    179,    0.3,   10.3,   0.00,   0.00,  994.8,    0.3, -999.0
21-09-2023, 00:08:49,    187,    0.4,   10.3,   0.00,   0.00,  994.8,    0.0, -999.0
21-09-2023, 00:08:59,    192,    1.0,   10.3,   0.00,   0.00,  994.8,    0.2, -999.0
21-09-2023, 00:09:10,    193,    0.5,   10.2,   0.00,   0.00,  994.8,    0.5, -999.0
21-09-2023, 00:09:19,    193,    0.0,   10.3,   0.00,   0.00,  994.8,    0.3, -999.0
21-09-2023, 00:09:29,    199,    0.7,   10.3,   0.00,   0.00,  994.8,    0.4, -999.0
21-09-2023, 00:09:40,    200,    1.4,   10.3,   0.00,   0.00,  994.9,    0.2, -999.0
21-09-2023, 00:09:50,    200,    1.1,   10.3,   0.00,   0.00,  994.9,    0.4, -999.0
21-09-2023, 00:09:59,    199,    0.4,   10.3,   0.00,   0.00,  994.9,    0.3, -999.0
21-09-2023, 00:10:09,    197,    1.2,   10.4,   0.00,   0.00,  994.9,    0.5, -999.0
21-09-2023, 00:10:20,    197,    0.1,   10.3,   0.00,   0.00,  994.8,    0.1, -999.0
21-09-2023, 00:10:29,    196,    0.0,   10.2,   0.00,   0.00,  994.7,    0.4, -999.0
21-09-2023, 00:10:39,    197,    0.0,   10.3,   0.00,   0.00,  994.8,    0.1, -999.0
21-09-2023, 00:10:49,    196,    0.0,   10.3,   0.00,   0.00,  994.7,    0.2, -999.0
21-09-2023, 00:10:59,    197,    0.0,   10.3,   0.00,   0.00,  994.7,    0.2, -999.0
21-09-2023, 00:11:09,    197,    0.6,   10.3,   0.00,   0.00,  994.8,    0.1, -999.0
21-09-2023, 00:11:19,    197,    0.6,   10.4,   0.00,   0.00,  994.8,    0.4, -999.0
21-09-2023, 00:11:29,    235,    0.1,   10.3,   0.00,   0.00,  994.7,    0.2, -999.0
21-09-2023, 00:11:39,    226,    0.5,   10.4,   0.00,   0.00,  994.8,    0.4, -999.0
21-09-2023, 00:11:49,    226,    0.4,   10.3,   0.00,   0.00,  994.7,    0.1, -999.0
21-09-2023, 00:11:59,    226,    0.0,   10.3,   0.00,   0.00,  994.8,    0.4, -999.0
21-09-2023, 00:12:09,    226,    0.6,   10.3,   0.00,   0.00,  994.8,    0.2, -999.0
21-09-2023, 00:12:19,    231,    2.0,   10.3,   0.00,   0.00,  994.9,    0.3, -999.0
21-09-2023, 00:12:29,    229,    0.8,   10.3,   0.00,   0.00,  994.8,    0.2, -999.0
21-09-2023, 00:12:39,    229,    0.0,   10.3,   0.00,   0.00,  994.7,    0.1, -999.0
21-09-2023, 00:12:49,    229,    0.1,   10.3,   0.00,   0.00,  994.7,    0.3, -999.0
21-09-2023, 00:12:59,    229,    0.1,   10.3,   0.00,   0.00,  994.7,    0.1, -999.0
21-09-2023, 00:13:09,    228,    0.1,   10.3,   0.00,   0.00,  994.7,    0.2, -999.0
21-09-2023, 00:13:19,    228,    0.3,   10.4,   0.00,   0.00,  994.8,    0.4, -999.0
21-09-2023, 00:13:29,    227,    0.0,   10.3,   0.00,   0.00,  994.6,    0.3, -999.0
21-09-2023, 00:13:39,    209,    0.2,   10.3,   0.00,   0.00,  994.7,    0.3, -999.0
21-09-2023, 00:13:49,    201,    0.4,   10.3,   0.00,   0.00,  994.7,    0.2, -999.0
21-09-2023, 00:13:59,    203,    1.3,   10.3,   0.00,   0.00,  994.8,    0.3, -999.0
21-09-2023, 00:14:09,    204,    0.0,   10.3,   0.00,   0.00,  994.6,    0.1, -999.0
21-09-2023, 00:14:19,    203,    0.3,   10.3,   0.00,   0.00,  994.7,    0.1, -999.0
21-09-2023, 00:14:29,    203,    0.2,   10.2,   0.00,   0.00,  994.8,    0.3, -999.0
21-09-2023, 00:14:39,    204,    0.0,   10.2,   0.00,   0.00,  994.7,    0.2, -999.0
21-09-2023, 00:14:49,    203,    0.0,   10.1,   0.00,   0.00,  994.7,    0.5, -999.0
21-09-2023, 00:14:59,    203,    0.0,   10.3,   0.00,   0.00,  994.7,    0.1, -999.0
21-09-2023, 00:15:09,    203,    0.0,   10.2,   0.00,   0.00,  994.7,    0.1, -999.0
21-09-2023, 00:15:18,    203,    0.1,   10.2,   0.00,   0.00,  994.7,    0.1, -999.0
21-09-2023, 00:15:29,    203,    0.4,   10.3,   0.00,   0.00,  994.8,    0.3, -999.0
21-09-2023, 00:15:39,    199,    0.9,   10.3,   0.00,   0.00,  994.9,    0.3, -999.0
21-09-2023, 00:15:48,    199,    0.6,   10.3,   0.00,   0.00,  994.9,    0.2, -999.0
21-09-2023, 00:15:58,    199,    0.7,   10.3,   0.00,   0.00,  994.9,    0.2, -999.0
21-09-2023, 00:16:09,    202,    1.5,   10.2,   0.00,   0.00,  994.9,    0.4, -999.0
21-09-2023, 00:16:19,    202,    0.3,   10.2,   0.00,   0.00,  994.8,    0.4, -999.0
21-09-2023, 00:16:28,    203,    0.0,   10.2,   0.00,   0.00,  994.8,    0.2, -999.0
21-09-2023, 00:16:38,    199,    1.0,   10.3,   0.00,   0.00,  994.9,    0.3, -999.0
21-09-2023, 00:16:49,    199,    1.1,   10.4,   0.00,   0.00,  994.9,    0.4, -999.0
21-09-2023, 00:16:58,    199,    1.2,   10.3,   0.00,   0.00,  994.9,    0.4, -999.0
21-09-2023, 00:17:08,    199,    0.6,   10.3,   0.00,   0.00,  994.9,    0.5, -999.0
21-09-2023, 00:17:19,    199,    0.0,   10.2,   0.00,   0.00,  994.7,    0.2, -999.0
21-09-2023, 00:17:28,    199,    0.0,   10.2,   0.00,   0.00,  994.8,    0.3, -999.0
21-09-2023, 00:17:38,    199,    0.2,   10.2,   0.00,   0.00,  994.8,    0.2, -999.0
21-09-2023, 00:17:48,    172,    2.0,   10.3,   0.00,   0.00,  994.9,    0.2, -999.0
21-09-2023, 00:17:58,    191,    1.7,   10.3,   0.00,   0.00,  994.9,    0.4, -999.0
21-09-2023, 00:18:08,    191,    0.2,   10.2,   0.00,   0.00,  994.8,    0.2, -999.0
21-09-2023, 00:18:18,    195,    0.8,   10.3,   0.00,   0.00,  994.9,    0.3, -999.0
21-09-2023, 00:18:28,    190,    0.5,   10.2,   0.00,   0.00,  994.8,    0.2, -999.0
21-09-2023, 00:18:38,    191,    0.9,   10.2,   0.00,   0.00,  994.9,    0.4, -999.0
21-09-2023, 00:18:48,    191,    0.9,   10.2,   0.00,   0.00,  994.8,    0.3, -999.0
21-09-2023, 00:18:58,    191,    0.5,   10.2,   0.00,   0.00,  994.8,    0.3, -999.0
21-09-2023, 00:19:08,    189,    0.1,   10.2,   0.00,   0.00,  994.8,    0.5, -999.0
21-09-2023, 00:19:18,    191,    0.7,   10.2,   0.00,   0.00,  994.9,    0.4, -999.0
21-09-2023, 00:19:28,    190,    0.1,   10.2,   0.00,   0.00,  994.8,    0.1, -999.0
21-09-2023, 00:19:38,    190,    0.0,   10.1,   0.00,   0.00,  994.6,    0.4, -999.0
21-09-2023, 00:19:48,    191,    0.0,   10.2,   0.00,   0.00,  994.6,    0.1, -999.0
21-09-2023, 00:19:58,    191,    0.0,   10.2,   0.00,   0.00,  994.6,    0.4, -999.0
21-09-2023, 00:20:08,    191,    0.0,   10.2,   0.00,   0.00,  994.7,    0.2, -999.0
21-09-2023, 00:20:18,    217,    1.4,   10.3,   0.00,   0.00,  994.8,    0.2, -999.0
21-09-2023, 00:20:28,    196,    2.1,   10.3,   0.00,   0.00,  994.8,    0.2, -999.0
21-09-2023, 00:20:38,    198,    1.3,   10.3,   0.00,   0.00,  994.8,    0.4, -999.0
21-09-2023, 00:20:48,    198,    0.6,   10.2,   0.00,   0.00,  994.7,    0.3, -999.0
21-09-2023, 00:20:58,    199,    0.0,   10.0,   0.00,   0.00,  994.6,    0.2, -999.0
21-09-2023, 00:21:08,    198,    0.0,   10.2,   0.00,   0.00,  994.6,    0.1, -999.0
21-09-2023, 00:21:18,    198,    0.0,   10.2,   0.00,   0.00,  994.7,    0.1, -999.0
21-09-2023, 00:21:28,    198,    0.1,   10.2,   0.00,   0.00,  994.7,    0.3, -999.0
21-09-2023, 00:21:38,    198,    0.0,   10.1,   0.00,   0.00,  994.6,    0.1, -999.0
21-09-2023, 00:21:47,    198,    0.0,   10.1,   0.00,   0.00,  994.6,    0.0, -999.0
21-09-2023, 00:21:58,    198,    0.0,   10.1,   0.00,   0.00,  994.6,    0.3, -999.0
21-09-2023, 00:22:08,    198,    0.0,   10.1,   0.00,   0.00,  994.6,    0.2, -999.0
21-09-2023, 00:22:17,    196,    0.0,   10.1,   0.00,   0.00,  994.6,    0.4, -999.0
21-09-2023, 00:22:28,    197,    0.4,   10.2,   0.00,   0.00,  994.7,    0.5, -999.0
21-09-2023, 00:22:38,    197,    0.3,   10.2,   0.00,   0.00,  994.7,    0.2, -999.0
21-09-2023, 00:22:48,    210,    1.0,   10.2,   0.00,   0.00,  994.7,    0.3, -999.0
21-09-2023, 00:22:57,    207,    1.0,   10.3,   0.00,   0.00,  994.7,    0.3, -999.0
21-09-2023, 00:23:08,    207,    0.4,   10.2,   0.00,   0.00,  994.7,    0.3, -999.0
21-09-2023, 00:23:18,    206,    0.5,   10.3,   0.00,   0.00,  994.7,    0.4, -999.0
21-09-2023, 00:23:27,    206,    0.9,   10.2,   0.00,   0.00,  994.7,    0.4, -999.0
21-09-2023, 00:23:37,    195,    0.9,   10.2,   0.00,   0.00,  994.7,    0.3, -999.0
21-09-2023, 00:23:48,    192,    1.5,   10.3,   0.00,   0.00,  994.8,    0.1, -999.0
21-09-2023, 00:23:57,    219,    2.2,   10.2,   0.00,   0.00,  994.8,    0.4, -999.0
21-09-2023, 00:24:07,    219,    0.5,   10.2,   0.00,   0.00,  994.7,    0.4, -999.0
21-09-2023, 00:24:17,    218,    0.0,   10.1,   0.00,   0.00,  994.6,    0.3, -999.0
21-09-2023, 00:24:27,    216,    0.1,   10.1,   0.00,   0.00,  994.6,    0.1, -999.0
21-09-2023, 00:24:37,    217,    0.1,   10.2,   0.00,   0.00,  994.7,    0.3, -999.0
21-09-2023, 00:24:47,    210,    0.0,   10.2,   0.00,   0.00,  994.7,    0.1, -999.0
21-09-2023, 00:24:57,    209,    0.0,   10.2,   0.00,   0.00,  994.6,    0.2, -999.0
21-09-2023, 00:25:07,    209,    0.0,   10.2,   0.00,   0.00,  994.7,    0.5, -999.0
21-09-2023, 00:25:17,    210,    0.0,   10.2,   0.00,   0.00,  994.6,    0.1, -999.0
21-09-2023, 00:25:27,    210,    0.0,   10.3,   0.00,   0.00,  994.6,    0.0, -999.0
21-09-2023, 00:25:37,    210,    0.0,   10.2,   0.00,   0.00,  994.6,    0.1, -999.0
21-09-2023, 00:25:47,    211,    0.4,   10.2,   0.00,   0.00,  994.7,    0.2, -999.0
21-09-2023, 00:25:57,    203,    1.1,   10.2,   0.00,   0.00,  994.8,    0.4, -999.0
21-09-2023, 00:26:07,    202,    0.9,   10.3,   0.00,   0.00,  994.7,    0.3, -999.0
21-09-2023, 00:26:17,    202,    0.7,   10.2,   0.00,   0.00,  994.7,    0.4, -999.0
21-09-2023, 00:26:27,    201,    1.0,   10.3,   0.00,   0.00,  994.8,    0.2, -999.0
21-09-2023, 00:26:37,    202,    0.8,   10.1,   0.00,   0.00,  994.8,    0.3, -999.0
21-09-2023, 00:26:47,    201,    0.3,   10.2,   0.00,   0.00,  994.7,    0.4, -999.0
21-09-2023, 00:26:57,    202,    0.0,   10.1,   0.00,   0.00,  994.6,    0.3, -999.0
21-09-2023, 00:27:07,    202,    0.3,   10.2,   0.00,   0.00,  994.7,    0.4, -999.0
21-09-2023, 00:27:17,    177,    1.4,   10.3,   0.00,   0.00,  994.8,    0.3, -999.0
21-09-2023, 00:27:27,    176,    1.3,   10.2,   0.00,   0.00,  994.8,    0.4, -999.0
21-09-2023, 00:27:37,    227,    1.4,   10.0,   0.00,   0.00,  994.7,    0.4, -999.0
21-09-2023, 00:27:47,    191,    0.8,   10.2,   0.00,   0.00,  994.8,    0.3, -999.0
21-09-2023, 00:27:57,    191,    0.2,   10.2,   0.00,   0.00,  994.7,    0.4, -999.0
21-09-2023, 00:28:07,    191,    0.0,   10.1,   0.00,   0.00,  994.6,    0.1, -999.0
21-09-2023, 00:28:17,    210,    0.2,   10.1,   0.00,   0.00,  994.7,    0.2, -999.0
21-09-2023, 00:28:27,    211,    0.0,   10.1,   0.00,   0.00,  994.7,    0.2, -999.0
21-09-2023, 00:28:37,    210,    0.0,   10.1,   0.00,   0.00,  994.6,    0.3, -999.0
21-09-2023, 00:28:46,    210,    0.1,   10.1,   0.00,   0.00,  994.7,    0.3, -999.0
21-09-2023, 00:28:57,    210,    0.1,   10.1,   0.00,   0.00,  994.7,    0.4, -999.0
21-09-2023, 00:29:07,    210,    0.0,   10.1,   0.00,   0.00,  994.6,    0.3, -999.0
21-09-2023, 00:29:17,    210,    0.0,   10.1,   0.00,   0.00,  994.6,    0.1, -999.0
21-09-2023, 00:29:26,    211,    0.9,   10.1,   0.00,   0.00,  994.7,    0.3, -999.0
21-09-2023, 00:29:37,    207,    0.8,   10.2,   0.00,   0.00,  994.7,    0.3, -999.0
21-09-2023, 00:29:47,    207,    0.3,   10.1,   0.00,   0.00,  994.7,    0.3, -999.0
21-09-2023, 00:29:56,    207,    0.0,   10.0,   0.00,   0.00,  994.6,    0.3, -999.0
21-09-2023, 00:30:07,    207,    0.0,   10.0,   0.00,   0.00,  994.6,    0.3, -999.0
21-09-2023, 00:30:17,    207,    0.0,   10.1,   0.00,   0.00,  994.7,    0.2, -999.0
21-09-2023, 00:30:26,    207,    0.0,   10.2,   0.00,   0.00,  994.6,    0.2, -999.0
21-09-2023, 00:30:36,    207,    0.0,   10.1,   0.00,   0.00,  994.6,    0.1, -999.0
21-09-2023, 00:30:47,    208,    0.0,   10.2,   0.00,   0.00,  994.7,    0.3, -999.0
21-09-2023, 00:30:56,    207,    0.8,   10.2,   0.00,   0.00,  994.8,    0.2, -999.0
21-09-2023, 00:31:06,    207,    0.4,   10.1,   0.00,   0.00,  994.7,    0.2, -999.0
21-09-2023, 00:31:16,    211,    1.3,   10.1,   0.00,   0.00,  994.8,    0.2, -999.0
21-09-2023, 00:31:27,    174,    1.1,   10.1,   0.00,   0.00,  994.8,    0.4, -999.0
21-09-2023, 00:31:36,    180,    0.7,   10.1,   0.00,   0.00,  994.8,    0.2, -999.0
21-09-2023, 00:31:46,    179,    0.0,   10.1,   0.00,   0.00,  994.7,    0.4, -999.0
21-09-2023, 00:31:56,    180,    0.0,   10.1,   0.00,   0.00,  994.6,    0.3, -999.0
21-09-2023, 00:32:06,    181,    0.0,   10.1,   0.00,   0.00,  994.6,    0.4, -999.0
21-09-2023, 00:32:16,    182,    0.3,   10.1,   0.00,   0.00,  994.7,    0.3, -999.0
21-09-2023, 00:32:26,    182,    0.0,   10.0,   0.00,   0.00,  994.6,    0.2, -999.0
21-09-2023, 00:32:36,    182,    0.0,   10.1,   0.00,   0.00,  994.6,    0.1, -999.0
21-09-2023, 00:32:46,    181,    0.0,   10.1,   0.00,   0.00,  994.6,    0.2, -999.0
21-09-2023, 00:32:57,    182,    0.0,   10.1,   0.00,   0.00,  994.6,    0.2, -999.0
21-09-2023, 00:33:06,    182,    0.0,   10.1,   0.00,   0.00,  994.6,    0.3, -999.0
21-09-2023, 00:33:16,    182,    0.0,   10.1,   0.00,   0.00,  994.6,    0.2, -999.0
21-09-2023, 00:33:26,    182,    0.0,   10.0,   0.00,   0.00,  994.6,    0.3, -999.0
21-09-2023, 00:33:36,    182,    0.0,   10.0,   0.00,   0.00,  994.6,    0.3, -999.0
21-09-2023, 00:33:46,    182,    0.2,   10.1,   0.00,   0.00,  994.7,    0.1, -999.0
21-09-2023, 00:33:56,    182,    0.0,   10.1,   0.00,   0.00,  994.6,    0.2, -999.0
21-09-2023, 00:34:06,    182,    0.0,   10.1,   0.00,   0.00,  994.6,    0.4, -999.0
21-09-2023, 00:34:16,    182,    0.0,   10.1,   0.00,   0.00,  994.6,    0.2, -999.0
21-09-2023, 00:34:26,    182,    0.0,   10.0,   0.00,   0.00,  994.6,    0.3, -999.0
21-09-2023, 00:34:36,    183,    0.4,   10.1,   0.00,   0.00,  994.7,    0.3, -999.0
21-09-2023, 00:34:46,    182,    0.1,   10.1,   0.00,   0.00,  994.7,    0.2, -999.0
21-09-2023, 00:34:56,    184,    0.8,   10.1,   0.00,   0.00,  994.7,    0.3, -999.0
21-09-2023, 00:35:06,    184,    0.8,   10.1,   0.00,   0.00,  994.7,    0.3, -999.0
21-09-2023, 00:35:16,    185,    0.1,   10.1,   0.00,   0.00,  994.7,    0.2, -999.0
21-09-2023, 00:35:26,    185,    0.2,   10.2,   0.00,   0.00,  994.7,    0.2, -999.0
21-09-2023, 00:35:36,    186,    0.7,   10.1,   0.00,   0.00,  994.7,    0.1, -999.0
21-09-2023, 00:35:46,    186,    0.1,   10.1,   0.00,   0.00,  994.6,    0.3, -999.0
21-09-2023, 00:35:56,    185,    0.0,   10.1,   0.00,   0.00,  994.6,    0.1, -999.0
21-09-2023, 00:36:06,    185,    0.0,   10.0,   0.00,   0.00,  994.6,    0.3, -999.0
21-09-2023, 00:36:16,    185,    0.7,   10.1,   0.00,   0.00,  994.7,    0.3, -999.0
21-09-2023, 00:36:25,    185,    0.2,   10.1,   0.00,   0.00,  994.7,    0.4, -999.0
21-09-2023, 00:36:36,    185,    0.4,   10.2,   0.00,   0.00,  994.7,    0.2, -999.0
21-09-2023, 00:36:46,    185,    0.3,   10.1,   0.00,   0.00,  994.7,    0.4, -999.0
21-09-2023, 00:36:55,    185,    0.2,   10.1,   0.00,   0.00,  994.6,    0.2, -999.0
21-09-2023, 00:37:05,    185,    0.0,   10.0,   0.00,   0.00,  994.6,    0.2, -999.0
21-09-2023, 00:37:16,    185,    0.0,   10.1,   0.00,   0.00,  994.6,    0.4, -999.0
21-09-2023, 00:37:25,    175,    0.4,   10.1,   0.00,   0.00,  994.7,    0.2, -999.0
21-09-2023, 00:37:35,    175,    0.3,   10.0,   0.00,   0.00,  994.6,    0.3, -999.0
21-09-2023, 00:37:46,    175,    0.0,   10.1,   0.00,   0.00,  994.6,    0.2, -999.0
21-09-2023, 00:37:56,    175,    0.0,   10.0,   0.00,   0.00,  994.6,    0.3, -999.0
21-09-2023, 00:38:05,    175,    0.0,   10.0,   0.00,   0.00,  994.6,    0.1, -999.0
21-09-2023, 00:38:15,    175,    0.0,   10.1,   0.00,   0.00,  994.6,    0.1, -999.0
21-09-2023, 00:38:26,    175,    0.0,   10.0,   0.00,   0.00,  994.6,    0.2, -999.0
21-09-2023, 00:38:35,    175,    0.0,    9.9,   0.00,   0.00,  994.6,    0.4, -999.0
21-09-2023, 00:38:45,    175,    0.0,   10.0,   0.00,   0.00,  994.6,    0.3, -999.0
21-09-2023, 00:38:55,    175,    0.3,   10.0,   0.00,   0.00,  994.7,    0.3, -999.0
21-09-2023, 00:39:05,    175,    0.1,   10.0,   0.00,   0.00,  994.6,    0.3, -999.0
21-09-2023, 00:39:15,    175,    0.0,   10.0,   0.00,   0.00,  994.6,    0.3, -999.0
21-09-2023, 00:39:25,    175,    0.0,   10.0,   0.00,   0.00,  994.6,    0.2, -999.0
21-09-2023, 00:39:35,    175,    0.0,   10.0,   0.00,   0.00,  994.6,    0.1, -999.0
21-09-2023, 00:39:45,    175,    0.0,   10.0,   0.00,   0.00,  994.6,    0.1, -999.0
21-09-2023, 00:39:55,    175,    0.0,   10.0,   0.00,   0.00,  994.6,    0.2, -999.0
21-09-2023, 00:40:05,    175,    0.0,   10.0,   0.00,   0.00,  994.6,    0.2, -999.0
21-09-2023, 00:40:15,    175,    0.4,   10.0,   0.00,   0.00,  994.7,    0.3, -999.0
21-09-2023, 00:40:25,    175,    0.0,   10.0,   0.00,   0.00,  994.6,    0.4, -999.0
21-09-2023, 00:40:35,    175,    0.2,   10.0,   0.00,   0.00,  994.7,    0.3, -999.0
21-09-2023, 00:40:45,    175,    0.0,   10.0,   0.00,   0.00,  994.6,    0.2, -999.0
21-09-2023, 00:40:55,    175,    0.0,   10.0,   0.00,   0.00,  994.6,    0.3, -999.0
21-09-2023, 00:41:05,    175,    0.0,    9.9,   0.00,   0.00,  994.6,    0.3, -999.0
21-09-2023, 00:41:15,    176,    0.0,   10.0,   0.00,   0.00,  994.6,    0.1, -999.0
21-09-2023, 00:41:25,    175,    1.0,   10.0,   0.00,   0.00,  994.8,    0.4, -999.0
21-09-2023, 00:41:35,    174,    0.1,   10.0,   0.00,   0.00,  994.6,    0.3, -999.0
21-09-2023, 00:41:45,    175,    0.0,   10.0,   0.00,   0.00,  994.6,    0.4, -999.0
21-09-2023, 00:41:55,    175,    0.2,   10.0,   0.00,   0.00,  994.7,    0.3, -999.0
21-09-2023, 00:42:05,    175,    0.2,   10.0,   0.00,   0.00,  994.7,    0.4, -999.0
21-09-2023, 00:42:15,    175,    0.1,   10.0,   0.00,   0.00,  994.7,    0.5, -999.0
21-09-2023, 00:42:25,    175,    0.0,   10.0,   0.00,   0.00,  994.6,    0.2, -999.0
21-09-2023, 00:42:35,    176,    0.0,    9.9,   0.00,   0.00,  994.6,    0.4, -999.0
21-09-2023, 00:42:45,    175,    0.7,   10.0,   0.00,   0.00,  994.7,    0.2, -999.0
21-09-2023, 00:42:55,    175,    0.3,   10.1,   0.00,   0.00,  994.7,    0.4, -999.0
21-09-2023, 00:43:05,    175,    0.0,   10.0,   0.00,   0.00,  994.6,    0.2, -999.0
21-09-2023, 00:43:15,    175,    0.2,   10.1,   0.00,   0.00,  994.6,    0.2, -999.0
21-09-2023, 00:43:24,    175,    0.1,   10.0,   0.00,   0.00,  994.6,    0.4, -999.0
21-09-2023, 00:43:35,    175,    0.7,   10.0,   0.00,   0.00,  994.7,    0.4, -999.0
21-09-2023, 00:43:45,    176,    0.0,   10.0,   0.00,   0.00,  994.6,    0.3, -999.0
21-09-2023, 00:43:54,    175,    0.2,    9.9,   0.00,   0.00,  994.6,    0.4, -999.0
21-09-2023, 00:44:04,    175,    1.0,   10.1,   0.00,   0.00,  994.8,    0.3, -999.0
21-09-2023, 00:44:15,    175,    0.0,    9.9,   0.00,   0.00,  994.6,    0.4, -999.0
21-09-2023, 00:44:25,    175,    0.9,   10.0,   0.00,   0.00,  994.7,    0.2, -999.0
21-09-2023, 00:44:34,    175,    0.5,   10.1,   0.00,   0.00,  994.7,    0.3, -999.0
21-09-2023, 00:44:44,    175,    0.0,   10.0,   0.00,   0.00,  994.6,    0.1, -999.0
21-09-2023, 00:44:55,    175,    0.3,   10.0,   0.00,   0.00,  994.7,    0.3, -999.0
21-09-2023, 00:45:04,    175,    0.6,   10.1,   0.00,   0.00,  994.7,    0.2, -999.0
21-09-2023, 00:45:14,    175,    0.4,   10.1,   0.00,   0.00,  994.7,    0.2, -999.0
21-09-2023, 00:45:25,    175,    0.0,   10.0,   0.00,   0.00,  994.6,    0.4, -999.0
21-09-2023, 00:45:34,    175,    0.0,   10.0,   0.00,   0.00,  994.6,    0.1, -999.0
21-09-2023, 00:45:44,    175,    0.0,   10.0,   0.00,   0.00,  994.6,    0.3, -999.0
21-09-2023, 00:45:54,    175,    0.4,    9.9,   0.00,   0.00,  994.7,    0.3, -999.0
21-09-2023, 00:46:04,    175,    0.4,   10.1,   0.00,   0.00,  994.7,    0.2, -999.0
21-09-2023, 00:46:14,    175,    0.0,   10.0,   0.00,   0.00,  994.6,    0.2, -999.0
21-09-2023, 00:46:24,    175,    0.0,   10.0,   0.00,   0.00,  994.6,    0.3, -999.0
21-09-2023, 00:46:34,    175,    0.0,   10.0,   0.00,   0.00,  994.6,    0.0, -999.0
21-09-2023, 00:46:44,    175,    0.0,   10.0,   0.00,   0.00,  994.6,    0.1, -999.0